Alliance, NE

10:05 AM MDT on September 25, 2016 (GMT -0600)
Alliance Municipal

Weather History for KAIA - May, 2013

Change the Weather History Date:

Wednesday, May 8, 2013

  Actual Average Record
Temperature  
Mean Temperature 55 °F 52 °F  
Max Temperature 71 °F 68 °F 92 °F (1934)
Min Temperature 39 °F 36 °F 14 °F (2010)
Degree Days  
Heating Degree Days 10 13  
Month to date heating degree days 167 116  
Since 1 July heating degree days 6997 7005  
Cooling Degree Days 0 0  
Month to date cooling degree days 0 0  
Year to date cooling degree days 0 0  
Growing Degree Days 4 (Base 50)    
Moisture  
Dew Point 43 °F    
Average Humidity 65    
Maximum Humidity 100    
Minimum Humidity 30    
Precipitation  
Precipitation 0.11 in 0.07 in 1.12 in (2014)
Month to date precipitation 0.47 0.68  
Year to date precipitation 3.29 3.54  
Sea Level Pressure  
Sea Level Pressure 29.94 in    
Wind  
Wind Speed 9 mph (NE)    
Max Wind Speed 32 mph    
Max Gust Speed 41 mph    
Visibility 8 miles    
Events Fog , Rain , Thunderstorm    
T = Trace of Precipitation, MM = Missing Value Source: NWS Daily Summary

Daily Weather History Graph

Daily Weather History Graph

Search for Another Location

Airport or City:

Trip Planner

Search our weather history database for the weather conditions in past years. The results will help you decide how hot, cold, wet, or windy it might be!

Date:

Astronomy

May. 08, 2013 Rise Set
Actual Time 5:37 AM MDT 7:58 PM MDT
Civil Twilight 5:06 AM MDT 8:29 PM MDT
Nautical Twilight 4:28 AM MDT 9:08 PM MDT
Astronomical Twilight 3:45 AM MDT 9:51 PM MDT
Moon 4:48 AM MDT (5/8) 6:57 PM MDT (5/8)
Length of Visible Light 15h 22m
Length of Day
14h 20m
Waning Crescent, 2% of the Moon is Illuminated
May 8
Waning Crescent
May 9
New
May 17
First Quarter
May 24
Full
May 31
Last Quarter

Hourly Weather History & Observations

Time (MDT) Temp. Windchill Dew Point Humidity Pressure Visibility Wind Dir Wind Speed Gust Speed Precip Events Conditions
12:53 AM 48.0 °F - 45.0 °F 89% 29.88 in 10.0 mi South 9.2 mph - N/A   Mostly Cloudy
1:53 AM 45.0 °F 41.2 °F 42.1 °F 90% 29.87 in 10.0 mi South 6.9 mph - N/A   Clear
2:53 AM 44.1 °F - 41.0 °F 89% 29.86 in 10.0 mi Calm Calm - N/A   Clear
3:53 AM 43.0 °F - 41.0 °F 93% 29.87 in 10.0 mi Calm Calm - N/A   Clear
4:22 AM 39.2 °F - 39.2 °F 100% 29.93 in 10.0 mi Calm Calm - N/A   Scattered Clouds
4:30 AM 42.8 °F - 39.2 °F 87% 29.94 in 10.0 mi Calm Calm - N/A   Mostly Cloudy
4:53 AM 43.0 °F 41.3 °F 42.1 °F 97% 29.87 in 10.0 mi South 3.5 mph - N/A   Overcast
5:16 AM 44.6 °F - 44.6 °F 100% 29.94 in 1.8 mi Calm Calm - N/A   Overcast
5:20 AM 44.6 °F - 44.6 °F 100% 29.93 in 0.8 mi Calm Calm - N/A   Overcast
5:53 AM 45.0 °F - 45.0 °F 100% 29.87 in 0.2 mi Calm Calm - N/A Fog Fog
6:53 AM 46.9 °F - 46.0 °F 97% 29.90 in 0.2 mi South 5.8 mph - N/A Fog Fog
7:53 AM 46.9 °F - 46.9 °F 100% 29.94 in 0.2 mi WSW 3.5 mph - N/A Fog Fog
8:34 AM 48.2 °F - 46.4 °F 93% 29.98 in 1.2 mi WSW 4.6 mph - N/A   Overcast
8:43 AM 48.2 °F - 48.2 °F 100% 29.98 in 2.0 mi West 4.6 mph - N/A   Overcast
8:53 AM 48.9 °F - 48.0 °F 97% 29.98 in 3.0 mi West 3.5 mph - N/A   Overcast
9:53 AM 52.0 °F - 48.9 °F 89% 29.96 in 10.0 mi NNW 4.6 mph - N/A   Overcast
10:24 AM 55.4 °F - 50.0 °F 82% 30.00 in 10.0 mi Calm Calm - N/A   Scattered Clouds
10:53 AM 61.0 °F - 50.0 °F 67% 29.95 in 10.0 mi North 5.8 mph - N/A   Clear
11:53 AM 66.0 °F - 45.0 °F 47% 29.94 in 10.0 mi ESE 10.4 mph - N/A   Clear
12:53 PM 68.0 °F - 43.0 °F 40% 29.94 in 10.0 mi East 9.2 mph 17.3 mph N/A   Clear
1:53 PM 62.1 °F - 45.0 °F 53% 29.94 in 7.0 mi NNE 31.1 mph 41.4 mph 0.00 in Rain , Thunderstorm Light Thunderstorms and Rain
2:04 PM 60.8 °F - 37.4 °F 42% 30.00 in 2.0 mi NW 10.4 mph 31.1 mph 0.11 in Rain , Thunderstorm Thunderstorms and Rain
2:12 PM 60.8 °F - 42.8 °F 52% 30.00 in 8.0 mi East 10.4 mph - 0.11 in Rain Light Rain
2:53 PM 64.0 °F - 46.9 °F 54% 29.94 in 10.0 mi Calm Calm - 0.11 in   Mostly Cloudy
3:53 PM 69.1 °F - 39.9 °F 35% 29.91 in 10.0 mi NNE 16.1 mph 21.9 mph N/A   Partly Cloudy
4:53 PM 69.1 °F - 39.0 °F 33% 29.91 in 10.0 mi NE 19.6 mph 26.5 mph N/A   Clear
5:53 PM 68.0 °F - 36.0 °F 31% 29.92 in 10.0 mi NE 19.6 mph 25.3 mph N/A   Clear
6:53 PM 64.0 °F - 37.9 °F 38% 29.95 in 10.0 mi NE 18.4 mph - N/A   Clear
7:53 PM 57.9 °F - 39.0 °F 49% 29.99 in 10.0 mi NE 10.4 mph - N/A   Clear
8:53 PM 51.1 °F - 39.9 °F 66% 30.02 in 10.0 mi NNE 8.1 mph - N/A   Clear
9:53 PM 48.9 °F - 39.9 °F 71% 30.03 in 10.0 mi NNE 9.2 mph - N/A   Clear
10:53 PM 46.9 °F - 39.0 °F 74% 30.01 in 10.0 mi NE 8.1 mph - N/A   Clear
11:53 PM 45.0 °F 42.6 °F 39.9 °F 82% 30.01 in 10.0 mi North 4.6 mph - N/A   Clear